Time,TemperatureF,DewpointF,PressureIn,WindDirection,WindDirectionDegrees,WindSpeedMPH,WindSpeedGustMPH,Humidity,HourlyPrecipIn,Conditions,Clouds,dailyrainin,SoftwareType,DateUTC
2013-01-13 00:03:00,35.0,35.0,-100.00,WSW,240,1.0,1.0,98,0.00,,,-99.99,,2013-01-13 05:03:00,
2013-01-13 00:12:00,35.0,35.0,-100.00,WSW,250,1.0,1.0,98,0.00,,,-99.99,,2013-01-13 05:12:00,
2013-01-13 00:22:00,35.0,35.0,-100.00,West,265,0.0,1.0,98,0.00,,,-99.99,,2013-01-13 05:22:00,
2013-01-13 00:32:00,36.0,36.0,-100.00,South,180,0.0,2.0,98,0.00,,,-99.99,,2013-01-13 05:32:00,
2013-01-13 00:42:00,36.0,35.0,-100.00,WNW,285,0.0,1.0,98,0.00,,,-99.99,,2013-01-13 05:42:00,
2013-01-13 00:52:00,35.0,35.0,-100.00,West,270,1.0,1.0,98,0.00,,,-99.99,,2013-01-13 05:52:00,
2013-01-13 01:03:00,36.0,35.0,-100.00,West,275,0.0,1.0,98,0.00,,,-99.99,,2013-01-13 06:03:00,
2013-01-13 01:12:00,36.0,36.0,-100.00,North,5,0.0,1.0,98,0.00,,,-99.99,,2013-01-13 06:12:00,
2013-01-13 01:22:00,35.0,35.0,-100.00,NW,305,1.0,1.0,98,0.00,,,-99.99,,2013-01-13 06:22:00,
2013-01-13 01:32:00,36.0,36.0,-100.00,North,350,1.0,2.0,98,0.00,,,-99.99,,2013-01-13 06:32:00,
2013-01-13 01:42:00,36.0,36.0,-100.00,ESE,110,0.0,1.0,98,0.00,,,-99.99,,2013-01-13 06:42:00,
2013-01-13 01:52:00,36.0,35.0,-100.00,South,190,1.0,1.0,98,0.00,,,-99.99,,2013-01-13 06:52:00,
2013-01-13 02:02:00,35.0,35.0,-100.00,WSW,250,1.0,2.0,98,0.00,,,-99.99,,2013-01-13 07:02:00,
2013-01-13 02:12:00,36.0,36.0,-100.00,ESE,115,0.0,2.0,98,0.00,,,-99.99,,2013-01-13 07:12:00,
2013-01-13 02:22:00,35.0,35.0,-100.00,SW,225,1.0,1.0,98,0.00,,,-99.99,,2013-01-13 07:22:00,
2013-01-13 02:32:00,35.0,35.0,-100.00,SSW,210,0.0,2.0,98,0.00,,,-99.99,,2013-01-13 07:32:00,
2013-01-13 02:42:00,35.0,35.0,-100.00,SW,235,1.0,2.0,98,0.00,,,-99.99,,2013-01-13 07:42:00,
2013-01-13 02:52:00,35.0,35.0,-100.00,SW,230,2.0,2.0,98,0.00,,,-99.99,,2013-01-13 07:52:00,
2013-01-13 03:02:00,35.0,35.0,-100.00,WSW,240,1.0,3.0,98,0.00,,,-99.99,,2013-01-13 08:02:00,
2013-01-13 03:12:00,36.0,36.0,-100.00,ESE,115,0.0,2.0,98,0.00,,,-99.99,,2013-01-13 08:12:00,
2013-01-13 03:22:00,36.0,35.0,-100.00,SSW,195,0.0,1.0,98,0.00,,,-99.99,,2013-01-13 08:22:00,
2013-01-13 03:32:00,36.0,35.0,-100.00,South,175,0.0,1.0,98,0.00,,,-99.99,,2013-01-13 08:32:00,
2013-01-13 03:42:00,36.0,35.0,-100.00,NNW,330,0.0,1.0,98,0.00,,,-99.99,,2013-01-13 08:42:00,
2013-01-13 03:52:00,36.0,35.0,-100.00,ESE,110,0.0,1.0,98,0.00,,,-99.99,,2013-01-13 08:52:00,
2013-01-13 04:02:00,36.0,35.0,-100.00,West,260,0.0,1.0,98,0.00,,,-99.99,,2013-01-13 09:02:00,
2013-01-13 04:12:00,36.0,36.0,-100.00,NNW,340,2.0,3.0,98,0.00,,,-99.99,,2013-01-13 09:12:00,
2013-01-13 04:22:00,36.0,36.0,-100.00,NW,315,1.0,2.0,98,0.00,,,-99.99,,2013-01-13 09:22:00,
2013-01-13 04:32:00,36.0,36.0,-100.00,SSW,200,1.0,1.0,98,0.00,,,-99.99,,2013-01-13 09:32:00,
2013-01-13 04:42:00,36.0,36.0,-100.00,NE,50,0.0,1.0,98,0.00,,,-99.99,,2013-01-13 09:42:00,
2013-01-13 04:52:00,36.0,36.0,-100.00,ESE,120,2.0,2.0,98,0.00,,,-99.99,,2013-01-13 09:52:00,
2013-01-13 05:03:00,36.0,36.0,-100.00,West,260,0.0,1.0,98,0.00,,,-99.99,,2013-01-13 10:03:00,
2013-01-13 05:12:00,36.0,36.0,-100.00,NE,35,0.0,1.0,98,0.00,,,-99.99,,2013-01-13 10:12:00,
2013-01-13 05:22:00,35.0,35.0,-100.00,South,170,1.0,2.0,98,0.00,,,-99.99,,2013-01-13 10:22:00,
2013-01-13 05:32:00,36.0,36.0,-100.00,North,5,1.0,2.0,98,0.00,,,-99.99,,2013-01-13 10:32:00,
2013-01-13 05:42:00,36.0,35.0,-100.00,ENE,65,1.0,2.0,98,0.00,,,-99.99,,2013-01-13 10:42:00,
2013-01-13 05:52:00,36.0,36.0,-100.00,SSE,155,1.0,3.0,98,0.00,,,-99.99,,2013-01-13 10:52:00,
2013-01-13 06:02:00,36.0,36.0,-100.00,ENE,65,1.0,2.0,98,0.00,,,-99.99,,2013-01-13 11:02:00,
2013-01-13 06:12:00,36.0,36.0,-100.00,NE,50,0.0,1.0,98,0.00,,,-99.99,,2013-01-13 11:12:00,
2013-01-13 06:22:00,36.0,36.0,-100.00,ENE,65,1.0,2.0,98,0.00,,,-99.99,,2013-01-13 11:22:00,
2013-01-13 06:32:00,36.0,35.0,-100.00,WNW,285,1.0,3.0,98,0.00,,,-99.99,,2013-01-13 11:32:00,
2013-01-13 06:42:00,37.0,36.0,-100.00,WNW,285,0.0,2.0,98,0.00,,,-99.99,,2013-01-13 11:42:00,
2013-01-13 06:52:00,36.0,35.0,-100.00,West,260,0.0,3.0,98,0.00,,,-99.99,,2013-01-13 11:52:00,
2013-01-13 07:03:00,36.0,36.0,-100.00,NNW,330,1.0,2.0,98,0.00,,,-99.99,,2013-01-13 12:03:00,
2013-01-13 07:12:00,36.0,35.0,-100.00,East,100,0.0,2.0,98,0.00,,,-99.99,,2013-01-13 12:12:00,
2013-01-13 07:22:00,36.0,36.0,-100.00,SSE,160,0.0,1.0,98,0.00,,,-99.99,,2013-01-13 12:22:00,
2013-01-13 07:33:00,36.0,35.0,-100.00,SW,215,0.0,1.0,98,0.00,,,-99.99,,2013-01-13 12:33:00,
2013-01-13 07:42:00,36.0,35.0,-100.00,West,270,0.0,1.0,98,0.00,,,-99.99,,2013-01-13 12:42:00,
2013-01-13 07:52:00,37.0,36.0,-100.00,ESE,105,2.0,4.0,98,0.00,,,-99.99,,2013-01-13 12:52:00,
2013-01-13 08:03:00,36.0,36.0,-100.00,West,280,1.0,5.0,98,0.00,,,-99.99,,2013-01-13 13:03:00,
2013-01-13 08:12:00,37.0,36.0,-100.00,NW,325,1.0,3.0,98,0.00,,,-99.99,,2013-01-13 13:12:00,
2013-01-13 08:22:00,37.0,37.0,-100.00,NNW,340,1.0,2.0,98,0.00,,,-99.99,,2013-01-13 13:22:00,
2013-01-13 08:33:00,37.0,37.0,-100.00,WNW,300,0.0,3.0,98,0.00,,,-99.99,,2013-01-13 13:33:00,
2013-01-13 08:42:00,38.0,38.0,-100.00,ESE,105,2.0,3.0,98,0.00,,,-99.99,,2013-01-13 13:42:00,
2013-01-13 08:53:00,38.0,37.0,-100.00,WSW,255,0.0,1.0,98,0.00,,,-99.99,,2013-01-13 13:53:00,
2013-01-13 09:03:00,38.0,38.0,-100.00,NNW,330,1.0,1.0,98,0.00,,,-99.99,,2013-01-13 14:03:00,
2013-01-13 09:12:00,39.0,39.0,-100.00,ESE,110,1.0,3.0,98,0.00,,,-99.99,,2013-01-13 14:12:00,
2013-01-13 09:22:00,38.0,38.0,-100.00,WSW,245,1.0,2.0,98,0.00,,,-99.99,,2013-01-13 14:22:00,
2013-01-13 09:33:00,39.0,38.0,-100.00,West,265,1.0,1.0,98,0.00,,,-99.99,,2013-01-13 14:33:00,
2013-01-13 09:43:00,40.0,39.0,-100.00,SW,220,1.0,1.0,98,0.00,,,-99.99,,2013-01-13 14:43:00,
2013-01-13 09:52:00,41.0,40.0,-100.00,SSE,160,1.0,1.0,98,0.00,,,-99.99,,2013-01-13 14:52:00,
2013-01-13 10:03:00,41.0,41.0,-100.00,NNW,330,1.0,2.0,98,0.00,,,-99.99,,2013-01-13 15:03:00,
2013-01-13 10:12:00,42.0,41.0,-100.00,South,180,0.0,2.0,98,0.00,,,-99.99,,2013-01-13 15:12:00,
2013-01-13 10:23:00,42.0,41.0,-100.00,SSW,200,0.0,2.0,98,0.00,,,-99.99,,2013-01-13 15:23:00,
2013-01-13 10:33:00,42.0,41.0,-100.00,SSE,160,1.0,2.0,98,0.00,,,-99.99,,2013-01-13 15:33:00,
2013-01-13 10:43:00,42.0,41.0,-100.00,South,175,1.0,3.0,98,0.00,,,-99.99,,2013-01-13 15:43:00,
2013-01-13 10:52:00,42.0,42.0,-100.00,South,180,1.0,2.0,98,0.00,,,-99.99,,2013-01-13 15:52:00,
2013-01-13 11:03:00,42.0,42.0,-100.00,WNW,285,0.0,2.0,98,0.00,,,-99.99,,2013-01-13 16:03:00,
2013-01-13 11:12:00,42.0,42.0,-100.00,West,280,0.0,2.0,98,0.00,,,-99.99,,2013-01-13 16:12:00,
2013-01-13 11:23:00,43.0,42.0,-100.00,North,355,0.0,1.0,98,0.00,,,-99.99,,2013-01-13 16:23:00,
2013-01-13 11:33:00,43.0,42.0,-100.00,NW,305,1.0,3.0,98,0.00,,,-99.99,,2013-01-13 16:33:00,
2013-01-13 11:43:00,43.0,43.0,-100.00,SW,230,1.0,2.0,98,0.00,,,-99.99,,2013-01-13 16:43:00,
2013-01-13 11:53:00,43.0,43.0,-100.00,WSW,245,0.0,3.0,98,0.00,,,-99.99,,2013-01-13 16:53:00,
2013-01-13 12:03:00,44.0,43.0,-100.00,SW,235,0.0,2.0,98,0.00,,,-99.99,,2013-01-13 17:03:00,
2013-01-13 12:12:00,44.0,43.0,-100.00,South,190,1.0,2.0,98,0.00,,,-99.99,,2013-01-13 17:12:00,
2013-01-13 12:22:00,44.0,43.0,-100.00,WNW,290,1.0,4.0,98,0.00,,,-99.99,,2013-01-13 17:22:00,
2013-01-13 12:33:00,44.0,44.0,-100.00,South,180,1.0,6.0,98,0.00,,,-99.99,,2013-01-13 17:33:00,
2013-01-13 12:42:00,44.0,44.0,-100.00,SW,225,1.0,5.0,98,0.00,,,-99.99,,2013-01-13 17:42:00,
2013-01-13 12:53:00,44.0,44.0,-100.00,South,185,2.0,6.0,98,0.00,,,-99.99,,2013-01-13 17:53:00,
2013-01-13 13:03:00,44.0,44.0,-100.00,SSW,210,1.0,4.0,98,0.00,,,-99.99,,2013-01-13 18:03:00,
2013-01-13 13:12:00,44.0,44.0,-100.00,South,185,1.0,6.0,98,0.00,,,-99.99,,2013-01-13 18:12:00,
2013-01-13 13:23:00,45.0,44.0,-100.00,South,190,1.0,4.0,98,0.00,,,-99.99,,2013-01-13 18:23:00,
2013-01-13 13:33:00,45.0,44.0,-100.00,WSW,240,2.0,3.0,98,0.00,,,-99.99,,2013-01-13 18:33:00,
2013-01-13 13:43:00,45.0,44.0,-100.00,SSW,205,1.0,4.0,98,0.00,,,-99.99,,2013-01-13 18:43:00,
2013-01-13 13:53:00,45.0,45.0,-100.00,SW,230,0.0,2.0,98,0.00,,,-99.99,,2013-01-13 18:53:00,
2013-01-13 14:03:00,45.0,45.0,-100.00,SE,130,1.0,4.0,98,0.00,,,-99.99,,2013-01-13 19:03:00,
2013-01-13 14:12:00,45.0,45.0,-100.00,SSE,165,2.0,4.0,98,0.00,,,-99.99,,2013-01-13 19:12:00,
2013-01-13 14:22:00,45.0,45.0,-100.00,SSW,205,1.0,3.0,98,0.00,,,-99.99,,2013-01-13 19:22:00,
2013-01-13 14:33:00,45.0,45.0,-100.00,SW,235,1.0,4.0,98,0.00,,,-99.99,,2013-01-13 19:33:00,
2013-01-13 14:43:00,45.0,45.0,-100.00,South,180,1.0,3.0,98,0.00,,,-99.99,,2013-01-13 19:43:00,
2013-01-13 14:52:00,46.0,45.0,-100.00,WSW,245,1.0,3.0,98,0.00,,,-99.99,,2013-01-13 19:52:00,
2013-01-13 15:03:00,46.0,45.0,-100.00,SW,235,2.0,4.0,98,0.00,,,-99.99,,2013-01-13 20:03:00,
2013-01-13 15:12:00,46.0,45.0,-100.00,SSE,165,2.0,4.0,98,0.00,,,-99.99,,2013-01-13 20:12:00,
2013-01-13 15:22:00,46.0,46.0,-100.00,South,175,3.0,5.0,98,0.00,,,-99.99,,2013-01-13 20:22:00,
2013-01-13 15:33:00,46.0,45.0,-100.00,WSW,245,1.0,4.0,98,0.00,,,-99.99,,2013-01-13 20:33:00,
2013-01-13 15:43:00,46.0,45.0,-100.00,SW,220,1.0,4.0,98,0.00,,,-99.99,,2013-01-13 20:43:00,
2013-01-13 15:53:00,46.0,45.0,-100.00,South,190,1.0,4.0,98,0.00,,,-99.99,,2013-01-13 20:53:00,
2013-01-13 16:03:00,46.0,45.0,-100.00,SSE,160,2.0,6.0,98,0.00,,,-99.99,,2013-01-13 21:03:00,
2013-01-13 16:12:00,46.0,45.0,-100.00,South,170,2.0,5.0,98,0.00,,,-99.99,,2013-01-13 21:12:00,
2013-01-13 16:23:00,47.0,46.0,-100.00,South,180,3.0,6.0,98,0.00,,,-99.99,,2013-01-13 21:23:00,
2013-01-13 16:33:00,46.0,46.0,-100.00,South,185,1.0,6.0,98,0.00,,,-99.99,,2013-01-13 21:33:00,
2013-01-13 16:43:00,46.0,46.0,-100.00,SSW,195,2.0,7.0,98,0.00,,,-99.99,,2013-01-13 21:43:00,
2013-01-13 16:52:00,47.0,46.0,-100.00,South,175,2.0,6.0,98,0.00,,,-99.99,,2013-01-13 21:52:00,
2013-01-13 17:02:00,47.0,46.0,-100.00,SW,230,2.0,7.0,98,0.00,,,-99.99,,2013-01-13 22:02:00,
2013-01-13 17:12:00,47.0,46.0,-100.00,SW,215,1.0,4.0,98,0.00,,,-99.99,,2013-01-13 22:12:00,
2013-01-13 17:22:00,47.0,46.0,-100.00,South,175,2.0,5.0,98,0.00,,,-99.99,,2013-01-13 22:22:00,
2013-01-13 17:33:00,46.0,46.0,-100.00,South,175,1.0,6.0,98,0.00,,,-99.99,,2013-01-13 22:33:00,
2013-01-13 17:43:00,46.0,46.0,-100.00,ESE,115,1.0,4.0,98,0.00,,,-99.99,,2013-01-13 22:43:00,
2013-01-13 17:52:00,46.0,45.0,-100.00,SW,225,0.0,2.0,98,0.00,,,-99.99,,2013-01-13 22:52:00,
2013-01-13 18:02:00,45.0,45.0,-100.00,South,185,2.0,4.0,98,0.00,,,-99.99,,2013-01-13 23:02:00,
2013-01-13 18:12:00,46.0,46.0,-100.00,SSW,210,2.0,9.0,98,0.00,,,-99.99,,2013-01-13 23:12:00,
2013-01-13 18:23:00,46.0,46.0,-100.00,SW,235,1.0,4.0,98,0.00,,,-99.99,,2013-01-13 23:23:00,
2013-01-13 18:33:00,46.0,46.0,-100.00,SW,225,1.0,3.0,98,0.00,,,-99.99,,2013-01-13 23:33:00,
2013-01-13 18:42:00,46.0,45.0,-100.00,SE,145,0.0,2.0,98,0.00,,,-99.99,,2013-01-13 23:42:00,
2013-01-13 18:52:00,45.0,44.0,-100.00,SW,230,1.0,2.0,98,0.00,,,-99.99,,2013-01-13 23:52:00,
2013-01-13 19:03:00,45.0,45.0,-100.00,SW,225,1.0,3.0,98,0.00,,,-99.99,,2013-01-14 00:03:00,
2013-01-13 19:12:00,45.0,44.0,-100.00,West,280,1.0,3.0,98,0.00,,,-99.99,,2013-01-14 00:12:00,
2013-01-13 19:22:00,45.0,44.0,-100.00,South,190,1.0,3.0,98,0.00,,,-99.99,,2013-01-14 00:22:00,
2013-01-13 19:33:00,45.0,45.0,-100.00,NE,40,0.0,4.0,98,0.00,,,-99.99,,2013-01-14 00:33:00,
2013-01-13 19:43:00,44.0,44.0,-100.00,North,350,0.0,2.0,98,0.00,,,-99.99,,2013-01-14 00:43:00,
2013-01-13 19:52:00,43.0,42.0,-100.00,NW,315,0.0,1.0,98,0.00,,,-99.99,,2013-01-14 00:52:00,
2013-01-13 20:03:00,42.0,41.0,-100.00,SW,235,1.0,2.0,98,0.00,,,-99.99,,2013-01-14 01:03:00,
2013-01-13 20:12:00,43.0,42.0,-100.00,South,185,1.0,3.0,98,0.00,,,-99.99,,2013-01-14 01:12:00,
2013-01-13 20:22:00,43.0,43.0,-100.00,North,10,1.0,2.0,98,0.00,,,-99.99,,2013-01-14 01:22:00,
2013-01-13 20:33:00,45.0,44.0,-100.00,NW,305,1.0,4.0,98,0.00,,,-99.99,,2013-01-14 01:33:00,
2013-01-13 20:42:00,46.0,45.0,-100.00,South,170,2.0,5.0,98,0.00,,,-99.99,,2013-01-14 01:42:00,
2013-01-13 20:52:00,46.0,46.0,-100.00,South,190,2.0,6.0,98,0.00,,,-99.99,,2013-01-14 01:52:00,
2013-01-13 21:03:00,46.0,45.0,-100.00,SW,215,2.0,6.0,98,0.00,,,-99.99,,2013-01-14 02:03:00,
2013-01-13 21:12:00,46.0,45.0,-100.00,SSW,205,1.0,4.0,98,0.00,,,-99.99,,2013-01-14 02:12:00,
2013-01-13 21:22:00,46.0,45.0,-100.00,SSE,165,2.0,7.0,98,0.00,,,-99.99,,2013-01-14 02:22:00,
2013-01-13 21:33:00,47.0,47.0,-100.00,South,185,2.0,7.0,98,0.00,,,-99.99,,2013-01-14 02:33:00,
2013-01-13 21:42:00,47.0,47.0,-100.00,SSW,200,2.0,6.0,98,0.00,,,-99.99,,2013-01-14 02:42:00,
2013-01-13 21:53:00,46.0,46.0,-100.00,SSW,195,2.0,4.0,98,0.00,,,-99.99,,2013-01-14 02:53:00,
2013-01-13 22:03:00,46.0,46.0,-100.00,SSW,205,2.0,7.0,98,0.00,,,-99.99,,2013-01-14 03:03:00,
2013-01-13 22:12:00,46.0,46.0,-100.00,South,185,1.0,6.0,98,0.00,,,-99.99,,2013-01-14 03:12:00,
2013-01-13 22:22:00,45.0,45.0,-100.00,SSW,195,1.0,2.0,98,0.00,,,-99.99,,2013-01-14 03:22:00,
2013-01-13 22:32:00,45.0,44.0,-100.00,SSW,205,2.0,4.0,98,0.00,,,-99.99,,2013-01-14 03:32:00,
2013-01-13 22:42:00,44.0,43.0,-100.00,SW,220,1.0,3.0,98,0.00,,,-99.99,,2013-01-14 03:42:00,
2013-01-13 22:52:00,43.0,43.0,-100.00,SSW,205,2.0,3.0,98,0.00,,,-99.99,,2013-01-14 03:52:00,
2013-01-13 23:03:00,44.0,44.0,-100.00,SW,225,2.0,5.0,98,0.00,,,-99.99,,2013-01-14 04:03:00,
2013-01-13 23:12:00,44.0,43.0,-100.00,SW,225,1.0,3.0,98,0.00,,,-99.99,,2013-01-14 04:12:00,
2013-01-13 23:22:00,43.0,42.0,-100.00,SW,215,1.0,2.0,98,0.00,,,-99.99,,2013-01-14 04:22:00,
2013-01-13 23:32:00,42.0,42.0,-100.00,SSW,210,1.0,2.0,98,0.00,,,-99.99,,2013-01-14 04:32:00,
2013-01-13 23:42:00,41.0,41.0,-100.00,SSW,210,1.0,2.0,98,0.00,,,-99.99,,2013-01-14 04:42:00,
2013-01-13 23:52:00,41.0,40.0,-100.00,SW,225,1.0,2.0,98,0.00,,,-99.99,,2013-01-14 04:52:00,